CAPE
0 0 0 7 0 0 0 1 1 0 0 0 3 1 19 0 0 0 0 0 0 0 0 0 0 2 41 22 0 0 0 0 0 0 0 0 0 0 0 0 0 0 0 0
0 0 0 0 0 14 0 2 7 6 3 0 0 22 9 5 1 0 0 0 0 0 0 0 0 0 0 5 5 0 0 0 0 0 0 0 0 0 0 0 0 0 0 0
0 0 0 0 0 11 0 0 0 0 0 0 1 6 11 2 0 0 1 1 0 0 0 0 0 0 0 0 0 17 17 0 0 0 0 0 0 0 0 0 0 0 0 0
1 0 0 0 0 1 0 10 0 4 9 0 2 3 0 0 0 0 2 0 0 0 0 0 0 0 0 0 0 1 0 1 0 0 0 1 0 0 0 0 0 0 1 0
0 0 0 0 0 3 0 1 23 2 0 0 0 0 0 0 0 1 0 0 0 0 0 0 0 0 1 0 0 2 1 2 3 1 0 0 2 2 1 1 1 0 0 1
0 0 0 0 0 15 8 2 7 0 0 0 0 0 1 0 0 0 0 0 0 0 0 0 0 0 0 0 0 2 3 3 3 5 5 1 2 1 23 29 11 5 2 0
0 0 1 0 0 6 0 0 0 0 0 0 0 0 0 0 0 0 0 0 0 0 0 0 0 0 0 0 1 3 2 3 3 5 7 6 3 2 1 0 20 18 2 0
2 3 1 0 5 13 0 0 0 0 0 0 0 0 0 0 0 0 0 0 0 0 0 0 0 0 0 1 4 1 0 1 2 5 5 5 5 2 1 1 3 6 5 14
0 0 2 0 0 0 0 0 0 0 0 0 0 0 0 0 0 0 0 0 0 0 0 0 1 2 1 2 4 3 1 1 1 1 2 5 10 7 1 0 1 3 3 4
6 1 2 4 0 0 0 0 0 0 0 0 0 0 0 0 0 0 0 0 0 0 0 2 3 2 4 3 2 1 3 3 6 5 5 4 4 6 2 3 0 1 0 0
1 3 2 3 4 4 0 0 0 0 0 0 0 0 0 0 0 0 0 0 1 2 4 3 3 3 3 2 1 3 3 4 4 5 6 6 4 5 5 3 3 3 5 3
0 0 0 1 3 2 0 0 0 0 0 0 0 0 0 0 1 1 1 1 0 1 3 3 2 2 2 3 1 2 2 3 3 4 4 3 2 2 1 2 2 1 1 1
0 0 0 1 0 0 0 0 0 0 0 0 0 0 0 0 2 2 1 1 2 2 2 1 1 2 1 1 2 2 3 2 2 1 2 1 1 2 2 0 2 2 1 1
2 1 0 0 0 0 0 0 0 0 0 0 0 0 0 1 1 2 3 2 1 1 1 1 1 0 1 0 0 1 1 1 2 1 0 0 1 1 0 0 0 1 1 1
0 0 0 0 0 0 0 0 0 1 0 0 0 0 1 2 4 2 1 0 0 0 0 0 0 1 1 0 0 0 0 0 0 0 0 0 0 0 1 0 0 0 0 0
0 0 0 0 0 0 0 0 0 1 1 1 0 1 1 0 1 0 0 0 0 0 0 0 0 0 0 0 0 0 0 0 0 0 0 0 0 0 0 0 0 0 0 0
0 0 1 0 0 1 2 2 1 0 0 0 0 0 0 0 0 0 0 0 0 0 0 0 0 0 0 0 0 0 0 0 0 0 0 0 0 0 0 0 0 0 0 0
0 0 1 0 0 1 1 0 0 0 1 0 0 0 0 0 0 0 0 0 0 0 0 0 0 0 0 0 0 0 0 0 0 0 0 0 0 0 0 0 0 0 0 0
0 0 0 1 0 1 0 1 0 0 0 0 0 0 0 0 0 0 0 0 0 0 0 0 0 0 0 0 0 0 0 0 0 0 0 0 0 0 0 0 0 0 0 0
0 0 0 0 0 0 1 0 0 0 0 0 0 0 0 0 0 0 0 0 0 0 0 0 0 0 0 0 0 0 0 0 0 0 0 0 0 0 0 0 0 0 0 0
0 0 0 0 0 0 0 0 0 0 0 0 0 0 0 0 0 0 0 0 0 0 0 0 0 0 0 0 0 0 0 0 0 0 0 0 0 0 0 0 0 0 0 0
0 0 0 0 0 0 0 0 0 0 0 0 0 0 0 0 0 0 0 0 0 0 0 0 0 0 0 0 0 0 0 0 0 0 0 0 0 0 0 0 0 0 0 0
0 0 0 0 0 0 0 0 0 0 0 0 0 0 0 0 0 0 0 0 0 0 0 0 0 0 0 0 0 0 0 0 0 0 0 0 0 0 0 0 0 0 0 0
0 0 0 0 0 0 0 0 0 0 0 0 0 0 0 0 0 0 0 0 0 0 0 0 0 0 0 0 0 0 0 0 0 0 0 0 0 0 0 0 0 0 0 0
0 0 0 0 0 0 0 0 0 0 0 0 0 0 0 0 0 0 0 0 0 0 0 0 0 0 0 0 0 0 0 0 0 0 0 0 0 0 0 0 0 0 0 0
0 0 0 0 0 0 0 0 0 0 0 0 0 0 0 0 0 0 0 0 0 0 0 0 0 0 0 0 0 0 0 0 0 0 0 0 0 0 0 0 0 0 0 0
0 0 0 0 0 0 0 0 0 0 0 0 0 0 0 0 0 0 0 0 0 0 0 0 0 0 0 0 0 0 0 0 0 0 0 0 0 0 0 0 0 0 0 0
CIN
-0 -0 -0 -24 -26 -0 -0 -0 -0 -0 -0 -2 -2 -3 -1 -0 -0 -0 -0 -0 -0 -0 -0 -0 -0 -73 -226 -215 -0 -0 -0 -0 -0 -0 -0 -0 -0 -12 -0 -0 -0 -0 -0 -0
-0 -0 -0 -0 -1 -38 -0 -0 -0 -0 -0 -0 -0 -2 -2 -12 -8 -0 -0 -0 -0 -0 -0 -0 -0 -0 -0 -279 -276 -5 -0 -0 -0 -0 -0 -0 -0 -0 -0 -0 -0 -0 -0 -0
-0 -0 -0 -0 -0 -31 -0 -2 -0 -0 -0 -5 -0 -2 -1 -5 -0 -0 -43 -104 -0 -0 -0 -0 -0 -0 -0 -0 -0 -286 -277 -0 -0 -0 -0 -0 -0 -0 -0 -0 -0 -0 -0 -0
-2 -0 -0 -0 -0 -6 -2 -4 -0 -5 -11 -0 -0 -6 -0 -0 -0 -0 -173 -0 -0 -0 -0 -0 -0 -0 -0 -0 -0 -0 -0 -0 -0 -0 -0 -0 -0 -0 -0 -0 -0 -0 -0 -0
-0 -0 -0 -0 -0 -0 -0 -8 -32 -29 -0 -0 -0 -0 -0 -0 -0 -0 -0 -0 -0 -0 -0 -0 -0 -0 -0 -0 -0 -0 -0 -0 -0 -0 -0 -0 -138 -194 -0 -0 -0 -0 -0 -0
-0 -0 -0 -0 -8 -16 -7 -20 -53 -13 -0 -0 -0 -3 -0 -0 -0 -0 -0 -0 -0 -0 -0 -0 -0 -0 -0 -0 -0 -0 -0 -0 -0 -0 -0 -0 -0 -0 -148 -143 -176 -172 -171 -0
-0 -0 -1 -0 -0 -47 -0 -0 -0 -0 -0 -0 -0 -0 -0 -0 -0 -0 -0 -0 -0 -0 -0 -0 -0 -0 -0 -0 -0 -0 -0 -0 -0 -0 -0 -0 -0 -0 -0 -0 -141 -133 -119 -0
-2 -0 -0 -0 -48 -21 -0 -0 -0 -0 -0 -0 -0 -0 -0 -0 -0 -0 -0 -0 -0 -0 -0 -0 -0 -0 -0 -0 -0 -0 -0 -0 -0 -0 -0 -0 -0 -0 -0 -0 -0 -0 -0 -0
-0 -0 -10 -0 -0 -0 -0 -0 -0 -0 -0 -0 -0 -0 -0 -0 -0 -0 -0 -0 -0 -0 -0 -0 -0 -0 -0 -0 -0 -0 -0 -0 -0 -0 -0 -0 -0 -0 -0 -0 -0 -0 -0 -0
-6 -0 -0 -0 -0 -0 -0 -0 -0 -0 -0 -0 -0 -0 -0 -0 -0 -0 -0 -0 -0 -0 -0 -0 -0 -0 -0 -0 -0 -0 -0 -0 -0 -0 -0 -0 -0 -0 -0 -0 -0 -0 -0 -0
-0 -0 -0 -0 -0 -0 -0 -0 -0 -0 -0 -0 -0 -0 -0 -0 -0 -0 -0 -0 -0 -0 -0 -0 -0 -0 -0 -0 -0 -0 -0 -0 -0 -0 -0 -0 -0 -0 -0 -0 -0 -0 -0 -0
-0 -0 -0 -0 -0 -0 -0 -0 -0 -0 -0 -0 -0 -0 -0 -0 -0 -0 -0 -0 -0 -0 -0 -0 -0 -0 -0 -0 -0 -0 -0 -0 -0 -0 -0 -0 -0 -0 -0 -0 -0 -0 -0 -0
-0 -0 -0 -0 -0 -0 -0 -0 -0 -0 -0 -0 -0 -0 -0 -0 -0 -0 -0 -0 -0 -0 -0 -0 -0 -0 -0 -0 -0 -0 -0 -0 -0 -0 -0 -0 -0 -0 -0 -0 -0 -0 -0 -0
-0 -0 -0 -0 -0 -0 -0 -0 -0 -0 -0 -0 -0 -0 -0 -0 -0 -0 -0 -0 -0 -0 -0 -0 -0 -0 -0 -0 -0 -0 -0 -0 -0 -0 -0 -0 -0 -0 -0 -0 -0 -0 -0 -0
-0 -0 -0 -0 -0 -0 -0 -0 -0 -0 -0 -0 -0 -0 -0 -0 -0 -0 -0 -0 -0 -0 -0 -0 -0 -0 -0 -0 -0 -0 -0 -0 -0 -0 -0 -0 -0 -0 -0 -0 -0 -0 -0 -0
-0 -0 -0 -0 -0 -0 -0 -0 -0 -0 -0 -0 -0 -0 -0 -0 -0 -0 -0 -0 -0 -0 -0 -0 -0 -0 -0 -0 -0 -0 -0 -0 -0 -0 -0 -0 -0 -0 -0 -0 -0 -0 -0 -0
-0 -0 -0 -0 -0 -0 -0 -0 -0 -0 -0 -0 -0 -0 -0 -0 -0 -0 -0 -0 -0 -0 -0 -0 -0 -0 -0 -0 -0 -0 -0 -0 -0 -0 -0 -0 -0 -0 -0 -0 -0 -0 -0 -0
-0 -0 -0 -0 -0 -0 -0 -0 -0 -0 -0 -0 -0 -0 -0 -0 -0 -0 -0 -0 -0 -0 -0 -0 -0 -0 -0 -0 -0 -0 -0 -0 -0 -0 -0 -0 -0 -0 -0 -0 -0 -0 -0 -0
-0 -0 -0 -0 -0 -0 -0 -0 -0 -0 -0 -0 -0 -0 -0 -0 -0 -0 -0 -0 -0 -0 -0 -0 -0 -0 -0 -0 -0 -0 -0 -0 -0 -0 -0 -0 -0 -0 -0 -0 -0 -0 -0 -0
-0 -0 -0 -0 -0 -0 -0 -0 -0 -0 -0 -0 -0 -0 -0 -0 -0 -0 -0 -0 -0 -0 -0 -0 -0 -0 -0 -0 -0 -0 -0 -0 -0 -0 -0 -0 -0 -0 -0 -0 -0 -0 -0 -0
-0 -0 -0 -0 -0 -0 -0 -0 -0 -0 -0 -0 -0 -0 -0 -0 -0 -0 -0 -0 -0 -0 -0 -0 -0 -0 -0 -0 -0 -0 -0 -0 -0 -0 -0 -0 -0 -0 -0 -0 -0 -0 -0 -0
-0 -0 -0 -0 -0 -0 -0 -0 -0 -0 -0 -0 -0 -0 -0 -0 -0 -0 -0 -0 -0 -0 -0 -0 -0 -0 -0 -0 -0 -0 -0 -0 -0 -0 -0 -0 -0 -0 -0 -0 -0 -0 -0 -0
-0 -0 -0 -0 -0 -0 -0 -0 -0 -0 -0 -0 -0 -0 -0 -0 -0 -0 -0 -0 -0 -0 -0 -0 -0 -0 -0 -0 -0 -0 -0 -0 -0 -0 -0 -0 -0 -0 -0 -0 -0 -0 -0 -0
-0 -0 -0 -0 -0 -0 -0 -0 -0 -0 -0 -0 -0 -0 -0 -0 -0 -0 -0 -0 -0 -0 -0 -0 -0 -0 -0 -0 -0 -0 -0 -0 -0 -0 -0 -0 -0 -0 -0 -0 -0 -0 -0 -0
-0 -0 -0 -0 -0 -0 -0 -0 -0 -0 -0 -0 -0 -0 -0 -0 -0 -0 -0 -0 -0 -0 -0 -0 -0 -0 -0 -0 -0 -0 -0 -0 -0 -0 -0 -0 -0 -0 -0 -0 -0 -0 -0 -0
-0 -0 -0 -0 -0 -0 -0 -0 -0 -0 -0 -0 -0 -0 -0 -0 -0 -0 -0 -0 -0 -0 -0 -0 -0 -0 -0 -0 -0 -0 -0 -0 -0 -0 -0 -0 -0 -0 -0 -0 -0 -0 -0 -0
-0 -0 -0 -0 -0 -0 -0 -0 -0 -0 -0 -0 -0 -0 -0 -0 -0 -0 -0 -0 -0 -0 -0 -0 -0 -0 -0 -0 -0 -0 -0 -0 -0 -0 -0 -0 -0 -0 -0 -0 -0 -0 -0 -0
Wind_Speed
26 31 26 27 26 23 28 39 37 28 31 30 29 26 21 19 15 7 7 9 12 11 12 12 13 17 19 18 18 14 11 8 9 11 11 11 11 11 11 12 13 13 14 17
29 28 28 31 30 28 26 29 32 41 39 30 23 23 20 20 17 6 6 7 10 13 14 15 15 17 19 19 18 17 16 12 13 12 12 13 14 14 14 14 15 15 16 17
29 27 31 31 29 28 23 20 15 20 22 18 20 10 12 16 16 10 8 8 11 13 17 18 20 21 21 21 23 21 18 22 23 24 24 21 21 17 16 16 17 18 18 19
30 31 33 27 27 26 19 17 27 18 7 2 0 5 8 11 9 8 8 10 11 14 18 20 22 23 23 23 23 23 22 25 28 31 27 22 21 19 20 19 19 19 19 20
33 34 36 33 21 19 19 21 12 12 9 4 4 5 10 12 10 9 10 13 14 17 19 21 23 23 23 24 25 25 26 27 28 30 33 35 30 26 24 24 23 21 22 23
27 32 32 25 21 27 19 22 15 12 11 12 13 17 16 13 14 15 15 17 18 20 22 24 26 24 24 25 26 27 28 29 29 30 31 32 34 36 34 28 27 27 28 26
29 35 33 27 29 28 26 22 10 9 10 10 13 13 10 13 16 17 19 22 22 23 24 26 27 25 25 26 27 28 28 29 29 30 31 32 32 33 35 36 34 30 30 31
26 32 39 30 27 24 16 10 8 9 10 11 11 13 14 16 18 20 22 23 24 25 26 27 28 27 26 27 29 29 28 28 29 30 31 32 32 32 31 33 32 32 31 31
18 22 17 15 12 10 10 8 10 11 13 13 13 15 17 18 20 22 24 25 26 26 26 28 28 28 28 29 30 28 28 28 29 30 31 31 31 32 31 29 30 31 31 32
13 11 11 12 11 11 12 14 11 14 14 13 14 16 18 21 23 24 25 27 27 27 28 28 28 28 28 29 28 27 26 27 28 28 29 29 29 30 31 31 30 29 29 30
8 8 9 12 14 15 14 15 14 14 15 17 18 19 20 23 24 25 26 27 27 27 27 28 29 29 29 29 27 25 25 25 25 26 26 27 28 30 29 30 28 26 26 27
18 21 10 13 14 14 15 16 17 18 19 20 20 21 22 22 23 25 26 26 26 27 27 28 29 29 30 29 27 25 25 25 25 25 24 24 24 26 29 28 27 26 23 20
16 10 8 11 14 15 15 16 16 17 19 21 21 21 22 23 24 24 25 25 26 26 27 28 28 29 30 29 27 26 25 24 24 24 24 24 24 23 23 25 26 26 25 24
16 17 17 17 17 17 16 18 19 19 20 21 22 22 22 23 23 24 25 25 25 25 26 27 28 29 29 28 26 25 25 24 23 23 22 22 23 22 21 21 21 22 24 23
19 19 19 19 20 21 22 22 23 23 23 23 23 23 23 23 23 24 24 24 24 25 27 27 28 29 28 27 26 25 24 23 22 22 22 21 20 20 20 19 19 19 19 20
20 22 23 23 22 22 23 24 25 25 24 23 22 21 20 21 21 22 23 24 24 26 27 27 28 28 27 25 24 24 23 22 21 20 20 20 19 18 18 18 18 18 19 19
24 26 25 24 22 23 24 25 24 24 23 22 21 19 20 20 21 22 23 23 24 25 26 26 27 26 25 24 23 22 21 21 21 19 18 18 17 17 16 16 17 17 18 19
22 23 24 22 22 23 24 24 23 22 22 21 20 20 20 20 21 21 22 22 22 23 25 26 25 25 24 23 21 21 20 19 19 19 18 16 16 15 16 16 17 17 18 19
22 22 22 21 21 21 21 22 21 20 20 19 18 19 19 19 20 20 21 22 23 23 25 25 24 24 23 22 20 19 19 18 18 18 17 16 17 17 16 17 17 18 18 19
21 21 21 21 21 21 20 20 19 19 18 17 17 18 19 19 19 20 20 21 22 22 23 24 23 23 22 22 20 19 18 18 17 17 17 17 17 17 17 17 18 18 18 18
20 20 20 20 20 19 19 18 18 18 18 18 18 19 19 19 20 20 20 21 22 22 22 22 22 21 21 20 19 18 18 17 17 17 17 17 17 18 18 18 18 18 18 18
18 18 18 18 18 19 18 18 18 17 18 18 18 18 18 19 19 19 20 20 20 21 21 21 21 21 20 19 19 18 17 17 17 17 17 17 17 18 19 19 19 19 19 19
18 18 17 17 17 18 18 18 18 18 19 19 20 20 20 19 20 20 20 20 19 20 20 20 20 19 19 18 18 18 18 18 17 17 17 18 18 19 19 19 19 20 20 20
17 17 17 17 17 19 19 19 19 19 20 20 20 19 19 20 19 18 17 19 19 19 19 19 19 19 18 18 18 18 18 18 18 18 18 19 19 20 21 21 20 20 20 21
17 18 18 19 20 20 19 19 20 21 21 22 21 21 20 19 19 18 17 17 18 18 19 19 19 19 19 19 19 19 19 19 20 20 20 20 21 21 21 20 20 21 21 21
19 20 20 21 22 21 19 19 21 20 21 22 21 20 19 18 18 18 18 18 18 19 19 19 19 20 20 20 20 20 21 21 21 21 21 21 21 21 21 21 21 22 22 22
20 19 20 22 22 23 21 20 21 21 20 20 20 19 19 19 18 19 19 19 19 19 20 20 20 21 21 20 20 20 21 21 21 21 21 20 21 21 22 23 23 23 23 23
Wind_Direction
293 278 282 283 287 281 265 253 254 263 257 259 263 258 260 264 273 305 334 11 24 14 4 348 318 301 287 281 279 278 266 260 247 249 241 247 246 243 239 228 225 227 222 217
288 288 268 266 255 275 279 266 257 251 253 270 271 258 263 260 269 274 321 16 19 3 348 337 333 329 319 304 290 281 276 258 272 264 257 248 251 255 248 245 248 247 242 237
285 287 273 267 267 261 273 271 280 273 268 268 265 275 276 265 282 294 331 343 339 340 341 331 328 329 327 320 314 293 284 282 283 281 280 279 279 270 260 255 256 252 253 254
285 283 262 264 276 266 277 286 251 279 270 211 326 344 336 328 308 327 317 324 340 332 328 332 334 334 328 323 319 317 312 296 290 286 284 280 276 266 266 268 263 261 258 255
278 269 265 262 276 273 277 280 295 271 250 213 252 318 325 331 332 327 319 322 329 336 338 337 335 334 335 331 323 315 310 308 305 298 292 287 283 280 277 276 273 268 270 268
280 267 257 271 285 287 286 271 284 270 267 258 262 267 282 315 318 332 333 329 327 330 333 333 331 330 334 331 328 323 315 310 308 305 304 297 292 288 286 281 276 279 279 278
270 264 265 276 284 284 264 266 294 288 281 290 284 294 305 310 322 323 324 323 323 326 329 330 328 329 328 326 326 325 323 317 315 313 309 306 305 300 296 291 285 282 283 289
269 264 258 282 281 277 277 277 296 299 305 314 315 305 307 313 319 323 321 321 322 322 323 326 326 324 323 322 318 322 325 326 326 323 319 314 311 310 308 301 296 293 291 291
280 271 286 311 292 304 299 295 307 309 315 313 309 305 307 312 313 313 317 319 321 320 321 324 326 327 322 319 319 322 324 324 325 328 329 327 323 318 315 313 304 299 295 294
293 290 289 297 311 308 308 307 316 319 320 325 319 315 312 314 313 313 316 318 318 320 319 321 326 328 327 324 324 326 326 326 327 330 332 334 334 331 327 321 313 309 304 299
324 325 308 299 300 299 311 308 319 326 319 316 318 319 317 315 315 317 319 321 323 324 323 323 326 327 327 327 328 330 332 332 333 336 339 343 348 344 341 341 333 325 319 316
291 274 291 288 305 301 306 304 309 302 311 320 316 316 318 318 320 322 323 324 325 326 325 325 326 326 325 326 327 328 327 328 330 332 336 341 346 351 359 359 358 359 356 349
277 329 321 334 334 316 317 318 325 326 326 322 322 322 321 319 321 325 326 327 327 325 325 325 326 326 328 329 330 330 327 328 329 331 332 333 336 341 345 355 4 6 9 12
324 305 305 310 305 317 320 323 330 330 330 329 326 326 325 325 326 326 325 325 327 327 328 328 328 329 332 334 334 335 333 332 331 333 336 338 339 342 346 348 350 355 5 11
329 334 320 325 324 320 319 317 316 317 321 324 326 326 327 330 331 330 327 327 328 330 329 330 331 331 335 337 336 336 334 333 334 335 336 338 340 342 345 348 351 353 355 0
323 320 319 315 317 319 321 320 315 318 324 325 331 336 336 336 336 336 332 330 329 329 331 332 334 334 338 339 340 341 341 341 341 339 338 338 341 343 345 349 352 354 352 349
310 312 316 317 318 320 321 324 325 325 326 328 331 334 334 334 334 333 333 334 336 336 337 337 337 339 342 343 344 345 346 347 349 350 347 345 344 345 346 350 351 353 353 352
321 318 318 318 317 318 320 324 325 324 324 326 327 330 331 331 330 331 332 334 337 338 339 339 341 343 346 348 350 352 354 357 357 355 355 349 351 349 344 346 346 349 349 350
324 323 325 328 328 329 329 329 330 332 332 334 334 334 334 333 331 331 332 333 333 334 335 339 343 346 348 349 348 350 354 357 358 357 0 351 348 348 349 347 347 348 349 346
331 333 333 332 333 334 335 338 340 341 341 344 344 340 338 339 339 338 337 336 335 333 334 335 339 344 344 348 350 345 346 351 352 351 352 353 348 345 344 343 344 346 348 349
341 343 344 345 346 351 350 349 349 346 345 346 344 339 339 341 339 337 335 333 335 337 339 340 341 343 344 346 349 347 344 345 348 349 350 350 352 348 345 345 345 346 347 347
354 354 353 354 354 354 358 358 357 356 354 352 351 349 347 344 346 347 348 344 343 341 341 342 344 347 349 349 350 350 350 349 347 347 346 347 348 348 346 344 344 345 345 345
6 4 3 1 360 358 359 358 357 355 349 347 346 344 343 343 341 339 339 344 346 346 347 348 348 349 350 352 353 352 351 349 347 346 345 344 344 342 342 341 340 341 342 342
6 3 360 2 359 348 345 345 350 350 348 347 345 343 343 338 341 345 349 347 348 348 347 347 348 350 350 349 349 348 348 347 346 344 342 341 340 338 337 337 338 339 340 339
2 355 349 344 339 337 337 337 337 337 337 336 336 341 341 340 335 341 345 346 347 346 344 345 345 345 344 344 344 343 341 341 341 340 340 340 340 340 340 341 340 340 340 340
355 350 347 344 339 336 333 333 332 335 335 335 336 337 339 341 341 340 340 340 340 341 341 341 340 339 339 338 338 338 339 338 338 339 340 340 341 341 341 340 340 339 338 338
357 354 349 345 344 342 341 336 334 332 333 334 334 334 335 336 335 335 335 335 335 332 332 336 337 338 338 338 337 337 338 339 340 340 341 342 341 339 339 338 337 337 337 337